2025-138E

Last updated on Wed Jul 02 2025 00:02:08 GMT+0000 (Coordinated Universal Time)

1 64625U 25138E 25182.76837584 .22805110 15550-5 24288-3 0 9995 2 64625 97.3030 187.9056 0067877 204.0553 212.3610 16.41889293 788

Satellite not in orbit